EW0139 Weather Reports


time (UTC)temp
C
wind
direction
speed
KPH
gust
KPH
rain 1hr
cm
rain 24hr
cm
rain mn
cm
humidity
%
barometer
mb
20260505022809 6 309 16.1 30.6 0.00 0.00 0.00 44 1013.2
20260505021808 6 297 17.7 29.0 0.00 0.00 0.00 44 1012.9
20260505020746 6 311 22.5 35.4 0.00 0.00 0.00 44 1012.8
20260505015750 6 315 25.7 38.6 0.00 0.00 0.00 43 1012.7
20260505014749 6 310 19.3 35.4 0.00 0.00 0.00 45 1012.6
20260505013750 6 306 27.4 40.2 0.00 0.00 0.00 45 1012.4
20260505012751 6 300 24.1 45.1 0.00 0.00 0.00 44 1012.4
20260505011809 6 308 33.8 40.2 0.00 0.00 0.00 44 1012.2
20260505010756 7 313 29.0 41.8 0.00 0.00 0.00 42 1012.0
20260505005755 7 296 29.0 41.8 0.00 0.00 0.00 43 1013.0
20260505004753 7 304 32.2 45.1 0.00 0.00 0.00 44 1012.8
20260505003755 7 316 32.2 41.8 0.00 0.00 0.00 45 1012.9
20260505002753 7 304 32.2 48.3 0.00 0.00 0.00 42 1013.0
20260505001740 7 298 29.0 41.8 0.00 0.00 0.00 44 1012.7
20260505000743 7 315 16.1 45.1 0.00 0.00 0.00 47 1012.6
20260504235744 7 323 41.8 41.8 0.00 0.00 0.00 45 1012.7
20260504234746 7 304 37.0 46.7 0.00 0.00 0.00 45 1012.5
20260504233805 7 300 45.1 45.1 0.00 0.00 0.00 46 1012.5
20260504232752 7 277 37.0 45.1 0.00 0.00 0.00 46 1012.3
20260504231753 8 298 43.5 46.7 0.00 0.00 0.00 45 1012.2
20260504230753 8 306 33.8 45.1 0.00 0.00 0.00 46 1012.2
20260504225815 8 286 35.4 51.5 0.00 0.00 0.00 44 1012.0
20260504224755 8 309 38.6 51.5 0.00 0.00 0.00 43 1011.9
20260504223759 8 288 41.8 51.5 0.00 0.00 0.00 43 1012.0
20260504222759 9 294 30.6 64.4 0.00 0.00 0.00 44 1011.7
20260504221759 8 304 37.0 53.1 0.00 0.00 0.00 45 1011.9
20260504220740 9 295 37.0 56.3 0.00 0.00 0.00 42 1011.7
20260504215745 8 282 40.2 54.7 0.00 0.00 0.00 45 1011.4
20260504214745 9 293 43.5 57.9 0.00 0.00 0.00 42 1011.5
20260504213748 8 304 37.0 51.5 0.00 0.00 0.00 43 1011.5
20260504212749 8 294 37.0 51.5 0.00 0.00 0.00 43 1011.4
20260504211754 8 290 30.6 53.1 0.00 0.00 0.00 42 1011.4
20260504210755 9 315 38.6 53.1 0.00 0.00 0.00 42 1011.5
20260504205755 9 290 41.8 53.1 0.00 0.00 0.00 41 1011.5
20260504204819 9 298 24.1 57.9 0.00 0.00 0.00 41 1011.4
20260504203759 10 317 35.4 53.1 0.00 0.00 0.00 40 1011.4
20260504202742 9 321 29.0 51.5 0.00 0.00 0.00 40 1011.5
20260504201743 10 305 33.8 51.5 0.00 0.00 0.00 40 1011.4
20260504200744 10 275 46.7 51.5 0.00 0.00 0.00 40 1011.2
20260504195745 10 302 32.2 53.1 0.00 0.00 0.00 40 1011.2
20260504194750 9 317 41.8 51.5 0.00 0.00 0.00 39 1011.2
20260504193811 9 292 46.7 53.1 0.00 0.00 0.00 41 1012.2
20260504192751 10 296 41.8 61.2 0.00 0.00 0.00 41 1012.2
20260504191757 10 313 37.0 56.3 0.00 0.00 0.00 41 1011.9
20260504190817 9 296 33.8 51.5 0.00 0.00 0.00 42 1011.9
20260504185759 9 300 45.1 51.5 0.00 0.00 0.00 41 1012.0
20260504184740 10 288 35.4 62.8 0.00 0.00 0.00 41 1011.8
20260504183803 10 294 46.7 49.9 0.00 0.00 0.00 40 1011.7
20260504182743 10 279 38.6 62.8 0.00 0.00 0.00 39 1011.6
20260504181751 9 284 38.6 53.1 0.00 0.00 0.00 40 1011.7
20260504180754 10 294 27.4 51.5 0.00 0.00 0.00 40 1011.6
20260504175817 10 298 32.2 54.7 0.00 0.00 0.00 39 1011.7
20260504174817 9 300 29.0 51.5 0.00 0.00 0.00 42 1011.8
20260504173756 9 321 43.5 53.1 0.00 0.00 0.00 42 1011.7
20260504172742 9 294 49.9 53.1 0.00 0.00 0.00 41 1011.7
20260504171804 9 283 37.0 54.7 0.00 0.00 0.00 41 1011.8
20260504170745 10 289 37.0 51.5 0.00 0.00 0.00 40 1011.6
20260504150753 8 288 25.7 46.7 0.00 0.00 0.00 46 1011.8
20260504140750 7 285 30.6 49.9 0.00 0.00 0.00 51 1011.9
20260504130744 6 289 29.0 29.0 0.00 0.00 0.00 54 1011.6
20260504081758 11 290 24.1 46.7 0.00 0.00 0.00 44 1008.5
20260504080820 11 292 27.4 43.5 0.00 0.00 0.00 43 1008.4
20260504045742 13 313 27.4 30.6 0.00 0.00 0.00 38 1005.1
20260504044742 13 318 19.3 29.0 0.00 0.00 0.00 37 1004.9
20260504043750 13 321 11.3 19.3 0.00 0.00 0.00 37 1004.7
20260504042750 14 315 9.7 24.1 0.00 0.00 0.00 37 1004.6
20260504041814 14 334 20.9 32.2 0.00 0.00 0.00 35 1004.4
20260504040754 15 335 20.9 32.2 0.00 0.00 0.00 35 1004.5
20260504035759 15 323 20.9 32.2 0.00 0.00 0.00 34 1004.2
20260504034818 15 325 19.3 37.0 0.00 0.00 0.00 34 1004.0
20260504033743 16 308 25.7 40.2 0.00 0.00 0.00 34 1003.9
20260504032742 16 319 33.8 37.0 0.00 0.00 0.00 34 1003.8
20260504031742 16 311 17.7 25.7 0.00 0.00 0.00 37 1003.6
20260504030746 17 309 22.5 35.4 0.00 0.00 0.00 36 1003.4
20260504025750 17 321 20.9 35.4 0.00 0.00 0.00 35 1003.3
20260504024751 18 313 25.7 35.4 0.00 0.00 0.00 34 1002.8
20260504023753 18 304 24.1 41.8 0.00 0.00 0.00 33 1002.7